GSAT0101 (GALILEO-PFM)

Last updated on Feb. 22, 2020, 4:51 a.m. UTC

1 37846U 11060A   20052.22187334 -.00000057  00000-0  00000+0 0  9997
2 37846  56.5539  44.5063 0004730 320.0230  39.9534  1.70475587 51901
UTC
Height (km)
Latitude
Longitude
Inclination
Orbital Period
UTC large
Height (km)
Speed (km/s)
/
Latitude / Longitude
Inclination (degrees)
Orbital Period (minutes)
Azimuth
Elevation
Range (km)
Doppler Factor
iOS Compass Heading
iOS Angle

Next 30 passes for location: Hong Kong

Rise time Rise Azimuth (degrees) Set time Set Azimuth (degrees) Duration Max altitude (degrees)

No matching passes for this satellites